This is the latest recevied weather packets stored in our database for station/object NC4M. If no packets are shown the sender has not sent any weather packets the latest 10 day(s).
| Time | Temp. | Humidity | Pressure | Rain* | Wind** | Luminosity | Snow |
|---|---|---|---|---|---|---|---|
| 1778237146 | 9.44° C | 75% | 1013 hPa | 0 mm | - | 0 W/m² | - |
| 1778236842 | 9.44° C | 77% | 1013 hPa | 0 mm | - | 0 W/m² | - |
| 1778236540 | 9.44° C | 74% | 1013.1 hPa | 0 mm | - | 0 W/m² | - |
| 1778236237 | 9.44° C | 74% | 1013 hPa | 0 mm | - | 0 W/m² | - |
| 1778235934 | 9.44° C | 74% | 1013 hPa | 0 mm | - | 0 W/m² | - |
| 1778235632 | 9.44° C | 74% | 1013.1 hPa | 0 mm | - | 0 W/m² | - |
| 1778235329 | 9.44° C | 74% | 1013.2 hPa | 0 mm | - | 0 W/m² | - |
| 1778235026 | 9.44° C | 73% | 1012.9 hPa | 0 mm | - | 0 W/m² | - |
| 1778234725 | 9.44° C | 73% | 1013.2 hPa | 0 mm | - | 0 W/m² | - |
| 1778234421 | 9.44° C | 73% | 1013.3 hPa | 0 mm | - | 0 W/m² | - |
| 1778234118 | 9.44° C | 73% | 1013.3 hPa | 0 mm | - | 0 W/m² | - |
| 1778233815 | 9.44° C | 73% | 1013.2 hPa | 0 mm | - | 0 W/m² | - |
| 1778233512 | 9.44° C | 73% | 1013.3 hPa | 0 mm | - | 0 W/m² | - |
| 1778233209 | 9.44° C | 73% | 1013.3 hPa | 0 mm | - | 0 W/m² | - |
| 1778232906 | 9.44° C | 73% | 1013.5 hPa | 0 mm | - | 0 W/m² | - |
| 1778232604 | 9.44° C | 73% | 1013.4 hPa | 0 mm | - | 0 W/m² | - |
| 1778232301 | 9.44° C | 74% | 1013.3 hPa | 0 mm | - | 0 W/m² | - |
| 1778232000 | 9.44° C | 74% | 1013.3 hPa | 0 mm | - | 0 W/m² | - |
| 1778231696 | 9.44° C | 72% | 1013.3 hPa | 0 mm | - | 0 W/m² | - |
| 1778231393 | 9.44° C | 73% | 1013.2 hPa | 0 mm | - | 0 W/m² | - |
| 1778231092 | 9.44° C | 74% | 1013.2 hPa | 0 mm | - | 0 W/m² | - |
| 1778230787 | 9.44° C | 72% | 1013.3 hPa | 0 mm | - | 0 W/m² | - |
| 1778230484 | 9.44° C | 72% | 1013.5 hPa | 0 mm | - | 0 W/m² | - |
| 1778230181 | 10° C | 72% | 1013.4 hPa | 0 mm | - | 0 W/m² | - |
| 1778229878 | 10° C | 72% | 1013.5 hPa | 0 mm | - | 0 W/m² | - |
* Rain latest hour (hover to see other rain measurements)
** Current wind speed in m/s (hover to see current wind gust speed)